Time,TemperatureF,DewpointF,PressureIn,WindDirection,WindDirectionDegrees,WindSpeedMPH,WindSpeedGustMPH,Humidity,HourlyPrecipIn,Conditions,Clouds,dailyrainin,SoftwareType,DateUTC
2013-08-11 00:00:00,84.8,70.3,30.32,NE,53,2.0,4.0,62,0.00,,SKC,0.00,VWS V14.01,2013-08-11 05:00:00,
2013-08-11 00:03:00,84.0,71.0,30.32,NE,53,0.0,3.0,65,0.00,,SKC,0.00,VWS V14.01,2013-08-11 05:03:00,
2013-08-11 00:12:00,83.7,70.7,30.32,East,83,3.0,3.0,65,0.00,,SKC,0.00,VWS V14.01,2013-08-11 05:12:00,
2013-08-11 00:18:00,83.6,71.1,30.32,ENE,77,0.0,3.0,66,0.00,,SKC,0.00,VWS V14.01,2013-08-11 05:18:00,
2013-08-11 00:24:00,83.4,70.9,30.32,ENE,78,3.0,3.0,66,0.00,,SKC,0.00,VWS V14.01,2013-08-11 05:24:00,
2013-08-11 00:30:00,84.6,70.6,30.32,ENE,61,1.0,6.0,63,0.00,,SKC,0.00,VWS V14.01,2013-08-11 05:30:00,
2013-08-11 00:31:00,83.2,70.7,30.32,East,82,0.0,3.0,66,0.00,,SKC,0.00,VWS V14.01,2013-08-11 05:31:00,
2013-08-11 00:39:00,82.8,70.7,30.32,East,88,0.0,3.0,67,0.00,,SKC,0.00,VWS V14.01,2013-08-11 05:39:00,
2013-08-11 00:45:00,82.4,70.8,30.32,East,88,0.0,3.0,68,0.00,,SKC,0.00,VWS V14.01,2013-08-11 05:45:00,
2013-08-11 00:51:00,82.2,70.6,30.32,ENE,69,2.0,3.0,68,0.00,,SKC,0.00,VWS V14.01,2013-08-11 05:51:00,
2013-08-11 00:57:00,82.2,70.6,30.32,ENE,77,1.0,4.0,68,0.00,,SKC,0.00,VWS V14.01,2013-08-11 05:57:00,
2013-08-11 01:00:00,84.0,71.0,30.32,NE,51,1.0,5.0,65,0.00,,SKC,0.00,VWS V14.01,2013-08-11 06:00:00,
2013-08-11 01:03:00,82.3,70.7,30.32,ENE,76,2.0,4.0,68,0.00,,SKC,0.00,VWS V14.01,2013-08-11 06:03:00,
2013-08-11 01:10:00,82.3,70.7,30.32,East,89,2.0,5.0,68,0.00,,SKC,0.00,VWS V14.01,2013-08-11 06:10:00,
2013-08-11 01:16:00,82.3,70.7,30.32,East,89,1.0,5.0,68,0.00,,SKC,0.00,VWS V14.01,2013-08-11 06:16:00,
2013-08-11 01:22:00,82.2,70.6,30.32,East,89,0.0,5.0,68,0.00,,SKC,0.00,VWS V14.01,2013-08-11 06:22:00,
2013-08-11 01:28:00,82.1,70.9,30.32,East,89,0.0,5.0,69,0.00,,SKC,0.00,VWS V14.01,2013-08-11 06:28:00,
2013-08-11 01:30:00,83.2,70.7,30.32,East,82,0.0,3.0,66,0.00,,SKC,0.00,VWS V14.01,2013-08-11 06:30:00,
2013-08-11 01:34:00,82.1,70.9,30.32,East,89,2.0,2.0,69,0.00,,SKC,0.00,VWS V14.01,2013-08-11 06:34:00,
2013-08-11 01:40:00,82.1,70.9,30.32,East,89,1.0,3.0,69,0.00,,SKC,0.00,VWS V14.01,2013-08-11 06:40:00,
2013-08-11 01:46:00,82.3,71.5,30.32,East,94,1.0,6.0,70,0.00,,SKC,0.00,VWS V14.01,2013-08-11 06:46:00,
2013-08-11 01:52:00,82.4,71.6,30.32,East,83,0.0,6.0,70,0.00,,SKC,0.00,VWS V14.01,2013-08-11 06:52:00,
2013-08-11 01:58:00,82.4,72.1,30.32,East,81,1.0,6.0,71,0.00,,SKC,0.00,VWS V14.01,2013-08-11 06:58:00,
2013-08-11 02:00:00,82.2,70.6,30.32,ENE,74,1.0,4.0,68,0.00,,SKC,0.00,VWS V14.01,2013-08-11 07:00:00,
2013-08-11 02:04:00,82.3,72.0,30.32,East,81,0.0,2.0,71,0.00,,SKC,0.00,VWS V14.01,2013-08-11 07:04:00,
2013-08-11 02:14:00,82.0,72.1,30.32,East,81,0.0,3.0,72,0.00,,SKC,0.00,VWS V14.01,2013-08-11 07:14:00,
2013-08-11 02:20:00,81.8,71.9,30.32,East,81,0.0,3.0,72,0.00,,SKC,0.00,VWS V14.01,2013-08-11 07:20:00,
2013-08-11 02:26:00,81.6,72.1,30.32,East,81,0.0,3.0,73,0.00,,SKC,0.00,VWS V14.01,2013-08-11 07:26:00,
2013-08-11 02:30:00,82.1,70.9,30.32,East,89,1.0,5.0,69,0.00,,SKC,0.00,VWS V14.01,2013-08-11 07:30:00,
2013-08-11 02:31:00,81.4,72.3,30.32,East,81,0.0,3.0,74,0.00,,SKC,0.00,VWS V14.01,2013-08-11 07:31:00,
2013-08-11 02:38:00,81.2,72.1,30.32,East,81,0.0,0.0,74,0.00,,SKC,0.00,VWS V14.01,2013-08-11 07:38:00,
2013-08-11 02:44:00,81.0,71.9,30.32,East,81,0.0,0.0,74,0.00,,SKC,0.00,VWS V14.01,2013-08-11 07:44:00,
2013-08-11 02:50:00,80.7,72.0,30.32,East,81,0.0,2.0,75,0.00,,SKC,0.00,VWS V14.01,2013-08-11 07:50:00,
2013-08-11 02:59:00,80.5,72.2,30.32,East,81,0.0,2.0,76,0.00,,SKC,0.00,VWS V14.01,2013-08-11 07:59:00,
2013-08-11 03:00:00,82.4,72.1,30.32,East,81,1.0,6.0,71,0.00,,SKC,0.00,VWS V14.01,2013-08-11 08:00:00,
2013-08-11 03:05:00,80.3,72.4,30.32,East,81,0.0,1.0,77,0.00,,SKC,0.00,VWS V14.01,2013-08-11 08:05:00,
2013-08-11 03:11:00,80.1,72.2,30.32,East,81,0.0,1.0,77,0.00,,SKC,0.00,VWS V14.01,2013-08-11 08:11:00,
2013-08-11 03:17:00,79.9,72.1,30.32,East,81,0.0,1.0,77,0.00,,SKC,0.00,VWS V14.01,2013-08-11 08:17:00,
2013-08-11 03:23:00,79.6,72.1,30.32,East,81,0.0,1.0,78,0.00,,SKC,0.00,VWS V14.01,2013-08-11 08:23:00,
2013-08-11 03:29:00,79.4,72.3,30.32,East,81,0.0,1.0,79,0.00,,SKC,0.00,VWS V14.01,2013-08-11 08:29:00,
2013-08-11 03:30:00,81.4,72.3,30.32,East,81,0.0,3.0,74,0.00,,SKC,0.00,VWS V14.01,2013-08-11 08:30:00,
2013-08-11 03:35:00,79.3,72.2,30.32,East,81,0.0,0.0,79,0.00,,SKC,0.00,VWS V14.01,2013-08-11 08:35:00,
2013-08-11 03:41:00,79.1,72.0,30.32,East,81,0.0,0.0,79,0.00,,SKC,0.00,VWS V14.01,2013-08-11 08:41:00,
2013-08-11 03:47:00,78.9,71.8,30.32,East,81,0.0,0.0,79,0.00,,SKC,0.00,VWS V14.01,2013-08-11 08:47:00,
2013-08-11 03:53:00,78.7,72.0,30.32,East,81,0.0,0.0,80,0.00,,SKC,0.00,VWS V14.01,2013-08-11 08:53:00,
2013-08-11 03:59:00,78.5,71.8,30.32,East,81,0.0,0.0,80,0.00,,SKC,0.00,VWS V14.01,2013-08-11 08:59:00,
2013-08-11 04:00:00,80.4,72.2,30.32,East,81,0.0,2.0,76,0.00,,SKC,0.00,VWS V14.01,2013-08-11 09:00:00,
2013-08-11 04:05:00,78.4,71.7,30.32,East,81,0.0,0.0,80,0.00,,SKC,0.00,VWS V14.01,2013-08-11 09:05:00,
2013-08-11 04:18:00,77.9,71.6,30.32,East,81,0.0,1.0,81,0.00,,SKC,0.00,VWS V14.01,2013-08-11 09:18:00,
2013-08-11 04:24:00,77.8,71.9,30.32,East,81,0.0,1.0,82,0.00,,SKC,0.00,VWS V14.01,2013-08-11 09:24:00,
2013-08-11 04:30:00,77.6,71.7,31.89,East,81,0.0,2.0,82,0.00,,SKC,0.00,VWS V14.01,2013-08-11 09:30:00,
2013-08-11 04:36:00,77.5,71.9,31.89,East,81,0.0,0.0,83,0.00,,SKC,0.00,VWS V14.01,2013-08-11 09:36:00,
2013-08-11 04:42:00,77.3,71.7,31.89,East,81,0.0,0.0,83,0.00,,SKC,0.00,VWS V14.01,2013-08-11 09:42:00,
2013-08-11 04:48:00,77.3,71.7,31.89,East,81,0.0,0.0,83,0.00,,SKC,0.00,VWS V14.01,2013-08-11 09:48:00,
2013-08-11 04:57:00,77.2,72.0,31.89,East,81,0.0,2.0,84,0.00,,SKC,0.00,VWS V14.01,2013-08-11 09:57:00,
2013-08-11 05:00:00,78.5,71.8,30.32,East,81,0.0,0.0,80,0.00,,SKC,0.00,VWS V14.01,2013-08-11 10:00:00,
2013-08-11 05:03:00,77.2,72.0,31.89,East,81,0.0,0.0,84,0.00,,SKC,0.00,VWS V14.01,2013-08-11 10:03:00,
2013-08-11 05:12:00,77.1,71.9,31.89,East,81,0.0,1.0,84,0.00,,SKC,0.00,VWS V14.01,2013-08-11 10:12:00,
2013-08-11 05:18:00,77.1,71.9,31.89,East,81,0.0,1.0,84,0.00,,SKC,0.00,VWS V14.01,2013-08-11 10:18:00,
2013-08-11 05:24:00,77.1,71.9,31.89,East,81,0.0,1.0,84,0.00,,SKC,0.00,VWS V14.01,2013-08-11 10:24:00,
2013-08-11 05:30:00,77.0,71.8,31.89,East,81,0.0,1.0,84,0.00,,SKC,0.00,VWS V14.01,2013-08-11 10:30:00,
2013-08-11 05:36:00,76.9,72.1,31.89,East,81,0.0,0.0,85,0.00,,SKC,0.00,VWS V14.01,2013-08-11 10:36:00,
2013-08-11 05:42:00,76.9,72.1,31.89,East,81,0.0,2.0,85,0.00,,SKC,0.00,VWS V14.01,2013-08-11 10:42:00,
2013-08-11 05:48:00,77.0,72.2,31.89,East,81,0.0,2.0,85,0.00,,SKC,0.00,VWS V14.01,2013-08-11 10:48:00,
2013-08-11 05:54:00,77.0,72.2,31.89,East,81,0.0,2.0,85,0.00,,SKC,0.00,VWS V14.01,2013-08-11 10:54:00,
2013-08-11 06:00:00,77.2,72.0,31.89,East,81,0.0,2.0,84,0.00,,SKC,0.00,VWS V14.01,2013-08-11 11:00:00,
2013-08-11 06:02:00,77.0,71.8,31.89,East,81,0.0,2.0,84,0.00,,SKC,0.00,VWS V14.01,2013-08-11 11:02:00,
2013-08-11 06:07:00,76.9,71.7,31.89,East,81,0.0,2.0,84,0.00,,SKC,0.00,VWS V14.01,2013-08-11 11:07:00,
2013-08-11 06:13:00,76.9,71.7,31.89,East,81,0.0,2.0,84,0.00,,SKC,0.00,VWS V14.01,2013-08-11 11:13:00,
2013-08-11 06:19:00,76.8,71.9,31.89,East,81,0.0,2.0,85,0.00,,SKC,0.00,VWS V14.01,2013-08-11 11:19:00,
2013-08-11 06:28:00,76.7,71.9,31.89,East,81,1.0,2.0,85,0.00,,SKC,0.00,VWS V14.01,2013-08-11 11:28:00,
2013-08-11 06:30:00,77.0,71.8,31.89,East,81,0.0,1.0,84,0.00,,SKC,0.00,VWS V14.01,2013-08-11 11:30:00,
2013-08-11 06:34:00,76.6,71.8,31.89,East,81,0.0,1.0,85,0.00,,SKC,0.00,VWS V14.01,2013-08-11 11:34:00,
2013-08-11 06:40:00,76.7,72.2,31.89,East,81,1.0,3.0,86,0.00,,SKC,0.00,VWS V14.01,2013-08-11 11:40:00,
2013-08-11 06:46:00,76.7,72.2,31.89,East,81,2.0,3.0,86,0.00,,SKC,0.00,VWS V14.01,2013-08-11 11:46:00,
2013-08-11 06:52:00,76.6,72.1,31.89,East,81,0.0,3.0,86,0.00,,SKC,0.00,VWS V14.01,2013-08-11 11:52:00,
2013-08-11 06:58:00,76.7,72.2,31.89,East,81,0.0,3.0,86,0.00,,SKC,0.00,VWS V14.01,2013-08-11 11:58:00,
2013-08-11 07:00:00,77.0,71.8,31.89,East,81,0.0,2.0,84,0.00,,SKC,0.00,VWS V14.01,2013-08-11 12:00:00,
2013-08-11 07:04:00,76.7,72.2,31.89,SE,127,2.0,3.0,86,0.00,,SKC,0.00,VWS V14.01,2013-08-11 12:04:00,
2013-08-11 07:10:00,76.9,72.4,31.89,SE,127,0.0,3.0,86,0.00,,SKC,0.00,VWS V14.01,2013-08-11 12:10:00,
2013-08-11 07:17:00,77.1,72.6,31.89,SSE,149,0.0,3.0,86,0.00,,SKC,0.00,VWS V14.01,2013-08-11 12:17:00,
2013-08-11 07:23:00,77.3,72.4,31.89,SSE,149,1.0,3.0,85,0.00,,SKC,0.00,VWS V14.01,2013-08-11 12:23:00,
2013-08-11 07:29:00,77.6,72.7,31.89,SSE,149,0.0,3.0,85,0.00,,SKC,0.00,VWS V14.01,2013-08-11 12:29:00,
2013-08-11 07:30:00,76.7,71.9,31.89,East,81,0.0,3.0,85,0.00,,SKC,0.00,VWS V14.01,2013-08-11 12:30:00,
2013-08-11 07:35:00,78.0,72.8,31.89,SSE,148,2.0,2.0,84,0.00,,SKC,0.00,VWS V14.01,2013-08-11 12:35:00,
2013-08-11 07:41:00,78.4,72.8,31.89,SSE,149,2.0,3.0,83,0.00,,SKC,0.00,VWS V14.01,2013-08-11 12:41:00,
2013-08-11 07:47:00,78.8,73.2,31.89,South,177,2.0,4.0,83,0.00,,SKC,0.00,VWS V14.01,2013-08-11 12:47:00,
2013-08-11 07:53:00,79.2,73.2,31.89,SSW,194,4.0,6.0,82,0.00,,SKC,0.00,VWS V14.01,2013-08-11 12:53:00,
2013-08-11 07:59:00,79.4,73.1,31.89,SW,215,3.0,6.0,81,0.00,,SKC,0.00,VWS V14.01,2013-08-11 12:59:00,
2013-08-11 08:00:00,76.7,72.2,31.89,ESE,112,3.0,4.0,86,0.00,,SKC,0.00,VWS V14.01,2013-08-11 13:00:00,
2013-08-11 08:08:00,79.8,73.4,31.89,South,183,3.0,5.0,81,0.00,,SKC,0.00,VWS V14.01,2013-08-11 13:08:00,
2013-08-11 08:14:00,80.1,73.4,31.89,South,190,3.0,5.0,80,0.00,,SKC,0.00,VWS V14.01,2013-08-11 13:14:00,
2013-08-11 08:20:00,80.4,73.7,31.89,SSW,206,4.0,6.0,80,0.00,,SKC,0.00,VWS V14.01,2013-08-11 13:20:00,
2013-08-11 08:26:00,80.7,73.6,31.89,South,186,3.0,8.0,79,0.00,,SKC,0.00,VWS V14.01,2013-08-11 13:26:00,
2013-08-11 08:30:00,77.7,72.8,31.89,SSE,148,1.0,3.0,85,0.00,,SKC,0.00,VWS V14.01,2013-08-11 13:30:00,
2013-08-11 08:31:00,80.9,73.4,31.89,SSW,192,2.0,8.0,78,0.00,,SKC,0.00,VWS V14.01,2013-08-11 13:31:00,
2013-08-11 08:38:00,81.3,73.8,31.89,South,184,6.0,7.0,78,0.00,,SKC,0.00,VWS V14.01,2013-08-11 13:38:00,
2013-08-11 08:44:00,81.5,74.0,31.89,SSW,198,4.0,7.0,78,0.00,,SKC,0.00,VWS V14.01,2013-08-11 13:44:00,
2013-08-11 08:50:00,81.7,74.2,31.89,South,185,3.0,7.0,78,0.00,,SKC,0.00,VWS V14.01,2013-08-11 13:50:00,
2013-08-11 08:56:00,82.1,74.2,31.89,SSW,210,5.0,7.0,77,0.00,,SKC,0.00,VWS V14.01,2013-08-11 13:56:00,
2013-08-11 09:00:00,79.5,73.2,31.89,SW,215,0.0,6.0,81,0.00,,SKC,0.00,VWS V14.01,2013-08-11 14:00:00,
2013-08-11 09:02:00,82.4,74.1,31.89,South,178,1.0,7.0,76,0.00,,SKC,0.00,VWS V14.01,2013-08-11 14:02:00,
2013-08-11 09:09:00,82.9,74.6,31.89,WSW,248,5.0,7.0,76,0.00,,SKC,0.00,VWS V14.01,2013-08-11 14:09:00,
2013-08-11 09:15:00,83.2,74.8,31.89,West,278,5.0,7.0,76,0.00,,SKC,0.00,VWS V14.01,2013-08-11 14:15:00,
2013-08-11 09:21:00,83.6,75.2,31.89,SSW,200,5.0,7.0,76,0.00,,SKC,0.00,VWS V14.01,2013-08-11 14:21:00,
2013-08-11 09:27:00,83.8,75.0,31.89,WNW,289,4.0,7.0,75,0.00,,SKC,0.00,VWS V14.01,2013-08-11 14:27:00,
2013-08-11 09:30:00,80.9,73.4,31.89,SSW,192,2.0,8.0,78,0.00,,SKC,0.00,VWS V14.01,2013-08-11 14:30:00,
2013-08-11 09:36:00,84.3,75.1,31.89,SW,232,2.0,6.0,74,0.00,,SKC,0.00,VWS V14.01,2013-08-11 14:36:00,
2013-08-11 09:42:00,84.7,75.5,31.89,WSW,245,2.0,7.0,74,0.00,,SKC,0.00,VWS V14.01,2013-08-11 14:42:00,
2013-08-11 09:48:00,84.8,75.6,31.89,SSW,208,6.0,7.0,74,0.00,,SKC,0.00,VWS V14.01,2013-08-11 14:48:00,
2013-08-11 09:57:00,85.2,75.2,31.89,West,263,3.0,7.0,72,0.00,,SKC,0.00,VWS V14.01,2013-08-11 14:57:00,
2013-08-11 10:00:00,82.4,74.1,31.89,South,178,1.0,7.0,76,0.00,,SKC,0.00,VWS V14.01,2013-08-11 15:00:00,
2013-08-11 10:03:00,85.4,75.8,31.89,SW,235,3.0,6.0,73,0.00,,SKC,0.00,VWS V14.01,2013-08-11 15:03:00,
2013-08-11 10:09:00,85.7,75.2,31.89,SW,218,5.0,7.0,71,0.00,,SKC,0.00,VWS V14.01,2013-08-11 15:09:00,
2013-08-11 10:22:00,86.1,73.9,31.89,SSW,195,6.0,8.0,67,0.00,,SKC,0.00,VWS V14.01,2013-08-11 15:22:00,
2013-08-11 10:28:00,86.1,74.8,31.89,West,281,3.0,8.0,69,0.00,,SKC,0.00,VWS V14.01,2013-08-11 15:28:00,
2013-08-11 10:30:00,84.1,75.3,31.89,WSW,245,2.0,7.0,75,0.00,,SKC,0.00,VWS V14.01,2013-08-11 15:30:00,
2013-08-11 10:34:00,86.1,74.3,31.89,SW,218,6.0,7.0,68,0.00,,SKC,0.00,VWS V14.01,2013-08-11 15:34:00,
2013-08-11 10:40:00,86.1,74.3,31.89,SW,225,4.0,8.0,68,0.00,,SKC,0.00,VWS V14.01,2013-08-11 15:40:00,
2013-08-11 10:46:00,87.0,74.3,31.89,SW,219,3.0,8.0,66,0.00,,SKC,0.00,VWS V14.01,2013-08-11 15:46:00,
2013-08-11 10:52:00,87.5,73.4,31.89,SW,225,1.0,8.0,63,0.00,,SKC,0.00,VWS V14.01,2013-08-11 15:52:00,
2013-08-11 11:00:00,85.3,75.7,31.89,South,188,6.0,7.0,73,0.00,,SKC,0.00,VWS V14.01,2013-08-11 16:00:00,
2013-08-11 11:01:00,88.2,73.6,31.89,SW,225,3.0,8.0,62,0.00,,SKC,0.00,VWS V14.01,2013-08-11 16:01:00,
2013-08-11 11:07:00,88.5,74.3,31.89,WSW,254,3.0,7.0,63,0.00,,SKC,0.00,VWS V14.01,2013-08-11 16:07:00,
2013-08-11 11:13:00,88.9,74.7,31.89,SW,229,2.0,7.0,63,0.00,,SKC,0.00,VWS V14.01,2013-08-11 16:13:00,
2013-08-11 11:19:00,89.6,74.4,31.89,West,263,3.0,8.0,61,0.00,,SKC,0.00,VWS V14.01,2013-08-11 16:19:00,
2013-08-11 11:25:00,89.2,74.5,31.89,WSW,254,4.0,8.0,62,0.00,,SKC,0.00,VWS V14.01,2013-08-11 16:25:00,
2013-08-11 11:30:00,86.0,74.2,31.89,WSW,249,0.0,9.0,68,0.00,,SKC,0.00,VWS V14.01,2013-08-11 16:30:00,
2013-08-11 11:31:00,89.5,74.3,31.89,West,275,3.0,8.0,61,0.00,,SKC,0.00,VWS V14.01,2013-08-11 16:31:00,
2013-08-11 11:38:00,89.9,73.7,31.89,West,270,1.0,6.0,59,0.00,,SKC,0.00,VWS V14.01,2013-08-11 16:38:00,
2013-08-11 11:44:00,90.2,72.4,31.89,SW,222,0.0,6.0,56,0.00,,SKC,0.00,VWS V14.01,2013-08-11 16:44:00,
2013-08-11 11:50:00,90.7,74.4,31.89,North,5,1.0,6.0,59,0.00,,SKC,0.00,VWS V14.01,2013-08-11 16:50:00,
2013-08-11 11:56:00,91.1,74.3,31.89,WSW,241,0.0,6.0,58,0.00,,SKC,0.00,VWS V14.01,2013-08-11 16:56:00,
2013-08-11 12:00:00,88.3,73.6,31.89,SW,228,1.0,8.0,62,0.00,,SKC,0.00,VWS V14.01,2013-08-11 17:00:00,
2013-08-11 12:02:00,91.8,74.4,31.89,West,262,3.0,3.0,57,0.00,,SKC,0.00,VWS V14.01,2013-08-11 17:02:00,
2013-08-11 12:11:00,91.7,73.8,31.89,SSE,149,5.0,7.0,56,0.00,,SKC,0.00,VWS V14.01,2013-08-11 17:11:00,
2013-08-11 12:20:00,91.8,73.9,31.89,West,279,5.0,7.0,56,0.00,,SKC,0.00,VWS V14.01,2013-08-11 17:20:00,
2013-08-11 12:29:00,92.2,73.7,31.89,WNW,283,5.0,7.0,55,0.00,,SKC,0.00,VWS V14.01,2013-08-11 17:29:00,
2013-08-11 12:30:00,89.5,74.3,31.89,West,275,3.0,8.0,61,0.00,,SKC,0.00,VWS V14.01,2013-08-11 17:30:00,
2013-08-11 12:35:00,92.5,74.0,31.89,South,172,1.0,5.0,55,0.00,,SKC,0.00,VWS V14.01,2013-08-11 17:35:00,
2013-08-11 12:45:00,93.0,74.5,31.89,SW,232,6.0,6.0,55,0.00,,SKC,0.00,VWS V14.01,2013-08-11 17:45:00,
2013-08-11 12:51:00,93.0,74.5,31.89,SW,223,7.0,7.0,55,0.00,,SKC,0.00,VWS V14.01,2013-08-11 17:51:00,
2013-08-11 13:00:00,91.8,73.9,31.89,West,275,3.0,6.0,56,0.00,,SKC,0.00,VWS V14.01,2013-08-11 18:00:00,
2013-08-11 13:02:00,93.1,73.4,31.89,WSW,257,3.0,7.0,53,0.00,,SKC,0.00,VWS V14.01,2013-08-11 18:02:00,
2013-08-11 13:09:00,93.5,74.4,31.89,SW,225,6.0,6.0,54,0.00,,SKC,0.00,VWS V14.01,2013-08-11 18:09:00,
2013-08-11 13:15:00,94.0,73.7,31.89,West,267,3.0,6.0,52,0.00,,SKC,0.00,VWS V14.01,2013-08-11 18:15:00,
2013-08-11 13:22:00,94.7,73.8,31.89,SSW,205,6.0,8.0,51,0.00,,SKC,0.00,VWS V14.01,2013-08-11 18:22:00,
2013-08-11 13:28:00,94.4,73.5,31.89,West,277,1.0,8.0,51,0.00,,SKC,0.00,VWS V14.01,2013-08-11 18:28:00,
2013-08-11 13:30:00,92.2,74.2,31.89,West,266,2.0,7.0,56,0.00,,SKC,0.00,VWS V14.01,2013-08-11 18:30:00,
2013-08-11 13:34:00,95.0,73.5,31.89,SSE,155,2.0,7.0,50,0.00,,SKC,0.00,VWS V14.01,2013-08-11 18:34:00,
2013-08-11 13:40:00,95.1,72.9,31.89,SW,217,7.0,7.0,49,0.00,,SKC,0.00,VWS V14.01,2013-08-11 18:40:00,
2013-08-11 13:49:00,95.2,73.0,31.89,SSE,163,5.0,7.0,49,0.00,,SKC,0.00,VWS V14.01,2013-08-11 18:49:00,
2013-08-11 13:55:00,95.6,72.8,31.89,South,188,3.0,9.0,48,0.00,,SKC,0.00,VWS V14.01,2013-08-11 18:55:00,
2013-08-11 14:00:00,93.1,73.4,31.89,WSW,257,3.0,7.0,53,0.00,,SKC,0.00,VWS V14.01,2013-08-11 19:00:00,
2013-08-11 14:01:00,96.0,72.5,31.89,South,178,4.0,9.0,47,0.00,,SKC,0.00,VWS V14.01,2013-08-11 19:01:00,
2013-08-11 14:10:00,96.4,71.6,31.89,SW,236,3.0,8.0,45,0.00,,SKC,0.00,VWS V14.01,2013-08-11 19:10:00,
2013-08-11 14:16:00,96.2,71.4,31.89,SSE,159,1.0,8.0,45,0.00,,SKC,0.00,VWS V14.01,2013-08-11 19:16:00,
2013-08-11 14:22:00,96.4,72.3,31.89,SSW,202,2.0,8.0,46,0.00,,SKC,0.00,VWS V14.01,2013-08-11 19:22:00,
2013-08-11 14:30:00,95.0,74.1,31.89,West,265,5.0,8.0,51,0.00,,SKC,0.00,VWS V14.01,2013-08-11 19:30:00,
2013-08-11 14:32:00,96.7,72.5,31.89,South,186,1.0,8.0,46,0.00,,SKC,0.00,VWS V14.01,2013-08-11 19:32:00,
2013-08-11 14:38:00,97.3,73.1,31.89,SSW,211,0.0,8.0,46,0.00,,SKC,0.00,VWS V14.01,2013-08-11 19:38:00,
2013-08-11 14:44:00,97.7,73.4,31.89,SW,217,0.0,8.0,46,0.00,,SKC,0.00,VWS V14.01,2013-08-11 19:44:00,
2013-08-11 14:50:00,98.4,73.4,31.89,SSW,197,2.0,8.0,45,0.00,,SKC,0.00,VWS V14.01,2013-08-11 19:50:00,
2013-08-11 14:56:00,97.8,72.2,31.89,SW,223,3.0,9.0,44,0.00,,SKC,0.00,VWS V14.01,2013-08-11 19:56:00,
2013-08-11 15:00:00,96.0,72.5,31.89,South,188,5.0,9.0,47,0.00,,SKC,0.00,VWS V14.01,2013-08-11 20:00:00,
2013-08-11 15:05:00,97.8,71.5,31.89,SSE,166,4.0,6.0,43,0.00,,SKC,0.00,VWS V14.01,2013-08-11 20:05:00,
2013-08-11 15:18:00,98.8,71.7,31.89,NNE,30,3.0,6.0,42,0.00,,SKC,0.00,VWS V14.01,2013-08-11 20:18:00,
2013-08-11 15:27:00,100.2,72.3,31.89,WSW,238,2.0,6.0,41,0.00,,SKC,0.00,VWS V14.01,2013-08-11 20:27:00,
2013-08-11 15:30:00,96.7,72.5,31.89,South,186,1.0,8.0,46,0.00,,SKC,0.00,VWS V14.01,2013-08-11 20:30:00,
2013-08-11 15:36:00,100.5,71.8,31.89,West,262,2.0,3.0,40,0.00,,SKC,0.00,VWS V14.01,2013-08-11 20:36:00,
2013-08-11 15:45:00,100.4,70.2,31.89,WSW,257,3.0,7.0,38,0.00,,SKC,0.00,VWS V14.01,2013-08-11 20:45:00,
2013-08-11 15:51:00,99.9,69.0,31.89,SSW,207,2.0,7.0,37,0.00,,SKC,0.00,VWS V14.01,2013-08-11 20:51:00,
2013-08-11 15:57:00,100.2,69.2,31.89,SSE,167,1.0,7.0,37,0.00,,SKC,0.00,VWS V14.01,2013-08-11 20:57:00,
2013-08-11 16:00:00,97.5,72.6,31.89,WSW,254,4.0,9.0,45,0.00,,SKC,0.00,VWS V14.01,2013-08-11 21:00:00,
2013-08-11 16:06:00,99.2,67.6,31.89,SW,223,0.0,5.0,36,0.00,,SKC,0.00,VWS V14.01,2013-08-11 21:06:00,
2013-08-11 16:12:00,99.4,67.8,31.89,East,97,0.0,6.0,36,0.00,,SKC,0.00,VWS V14.01,2013-08-11 21:12:00,
2013-08-11 16:18:00,100.2,69.2,31.89,SW,228,1.0,7.0,37,0.00,,SKC,0.00,VWS V14.01,2013-08-11 21:18:00,
2013-08-11 16:24:00,101.5,67.1,31.89,WSW,258,1.0,7.0,33,0.00,,SKC,0.00,VWS V14.01,2013-08-11 21:24:00,
2013-08-11 16:30:00,102.3,67.8,31.89,WNW,296,2.0,7.0,33,0.00,,SKC,0.00,VWS V14.01,2013-08-11 21:30:00,
2013-08-11 16:36:00,102.1,66.7,31.89,East,84,0.0,2.0,32,0.00,,SKC,0.00,VWS V14.01,2013-08-11 21:36:00,
2013-08-11 16:45:00,102.1,68.4,31.89,SE,134,0.0,5.0,34,0.00,,SKC,0.00,VWS V14.01,2013-08-11 21:45:00,
2013-08-11 16:52:00,102.3,67.8,31.89,NE,39,1.0,5.0,33,0.00,,SKC,0.00,VWS V14.01,2013-08-11 21:52:00,
2013-08-11 17:00:00,99.7,68.8,31.89,SSW,192,2.0,7.0,37,0.00,,SKC,0.00,VWS V14.01,2013-08-11 22:00:00,
2013-08-11 17:01:00,101.3,67.8,31.89,ESE,120,1.0,5.0,34,0.00,,SKC,0.00,VWS V14.01,2013-08-11 22:01:00,
2013-08-11 17:07:00,102.1,69.3,31.89,SW,230,0.0,2.0,35,0.00,,SKC,0.00,VWS V14.01,2013-08-11 22:07:00,
2013-08-11 17:13:00,103.1,68.4,31.89,ENE,67,2.0,2.0,33,0.00,,SKC,0.00,VWS V14.01,2013-08-11 22:13:00,
2013-08-11 17:19:00,103.3,68.6,31.89,ENE,73,1.0,4.0,33,0.00,,SKC,0.00,VWS V14.01,2013-08-11 22:19:00,
2013-08-11 17:25:00,103.0,68.4,31.89,NE,39,0.0,4.0,33,0.00,,SKC,0.00,VWS V14.01,2013-08-11 22:25:00,
2013-08-11 17:30:00,102.3,67.8,31.89,WNW,285,1.0,7.0,33,0.00,,SKC,0.00,VWS V14.01,2013-08-11 22:30:00,
2013-08-11 17:31:00,102.3,70.3,31.89,SE,136,0.0,4.0,36,0.00,,SKC,0.00,VWS V14.01,2013-08-11 22:31:00,
2013-08-11 17:37:00,102.6,70.6,31.89,NE,35,5.0,5.0,36,0.00,,SKC,0.00,VWS V14.01,2013-08-11 22:37:00,
2013-08-11 17:43:00,102.7,69.8,31.89,NNE,27,0.0,5.0,35,0.00,,SKC,0.00,VWS V14.01,2013-08-11 22:43:00,
2013-08-11 17:49:00,102.6,69.7,31.89,WNW,286,0.0,5.0,35,0.00,,SKC,0.00,VWS V14.01,2013-08-11 22:49:00,
2013-08-11 17:55:00,102.5,70.5,31.89,NNE,26,0.0,5.0,36,0.00,,SKC,0.00,VWS V14.01,2013-08-11 22:55:00,
2013-08-11 18:00:00,101.3,69.4,31.89,ESE,121,1.0,5.0,36,0.00,,SKC,0.00,VWS V14.01,2013-08-11 23:00:00,
2013-08-11 18:02:00,102.3,70.3,31.89,WNW,289,1.0,5.0,36,0.00,,SKC,0.00,VWS V14.01,2013-08-11 23:02:00,
2013-08-11 18:08:00,101.8,70.7,31.89,East,94,0.0,4.0,37,0.00,,SKC,0.00,VWS V14.01,2013-08-11 23:08:00,
2013-08-11 18:14:00,101.4,70.3,31.89,East,81,0.0,4.0,37,0.00,,SKC,0.00,VWS V14.01,2013-08-11 23:14:00,
2013-08-11 18:20:00,100.8,70.6,31.89,NE,54,0.0,4.0,38,0.00,,SKC,0.00,VWS V14.01,2013-08-11 23:20:00,
2013-08-11 18:26:00,100.4,70.2,31.89,NE,36,3.0,5.0,38,0.00,,SKC,0.00,VWS V14.01,2013-08-11 23:26:00,
2013-08-11 18:30:00,102.3,69.5,31.89,East,101,1.0,4.0,35,0.00,,SKC,0.00,VWS V14.01,2013-08-11 23:30:00,
2013-08-11 18:32:00,100.0,69.8,31.89,NNW,334,1.0,5.0,38,0.00,,SKC,0.00,VWS V14.01,2013-08-11 23:32:00,
2013-08-11 18:38:00,99.5,70.2,31.89,ENE,57,1.0,6.0,39,0.00,,SKC,0.00,VWS V14.01,2013-08-11 23:38:00,
2013-08-11 18:44:00,97.5,71.3,31.89,East,88,5.0,10.0,43,0.00,,SKC,0.00,VWS V14.01,2013-08-11 23:44:00,
2013-08-11 18:50:00,95.7,71.6,31.89,NNE,26,3.0,10.0,46,0.00,,SKC,0.00,VWS V14.01,2013-08-11 23:50:00,
2013-08-11 18:56:00,95.5,71.4,31.89,SE,128,5.0,12.0,46,0.00,,SKC,0.00,VWS V14.01,2013-08-11 23:56:00,
2013-08-11 19:00:00,102.3,70.3,31.89,WNW,289,1.0,5.0,36,0.00,,SKC,0.00,VWS V14.01,2013-08-12 00:00:00,
2013-08-11 19:02:00,94.3,72.2,31.89,East,94,13.0,13.0,49,0.00,,SKC,0.00,VWS V14.01,2013-08-12 00:02:00,
2013-08-11 19:08:00,92.3,71.0,31.89,East,83,6.0,14.0,50,0.00,,SKC,0.00,VWS V14.01,2013-08-12 00:08:00,
2013-08-11 19:14:00,90.8,70.8,31.89,East,94,7.0,15.0,52,0.00,,SKC,0.00,VWS V14.01,2013-08-12 00:14:00,
2013-08-11 19:20:00,89.7,70.9,31.89,SE,134,8.0,15.0,54,0.00,,SKC,0.00,VWS V14.01,2013-08-12 00:20:00,
2013-08-11 19:26:00,88.8,71.6,31.89,SSE,161,3.0,15.0,57,0.00,,SKC,0.00,VWS V14.01,2013-08-12 00:26:00,
2013-08-11 19:30:00,100.0,69.8,31.89,NNW,334,1.0,5.0,38,0.00,,SKC,0.00,VWS V14.01,2013-08-12 00:30:00,
2013-08-11 19:32:00,88.1,72.0,31.89,SSE,165,5.0,15.0,59,0.00,,SKC,0.00,VWS V14.01,2013-08-12 00:32:00,
2013-08-11 19:42:00,87.7,69.5,31.89,SE,131,3.0,13.0,55,0.00,,SKC,0.00,VWS V14.01,2013-08-12 00:42:00,
2013-08-11 19:48:00,88.1,68.8,31.89,ESE,109,3.0,13.0,53,0.00,,SKC,0.00,VWS V14.01,2013-08-12 00:48:00,
2013-08-11 19:54:00,88.1,68.3,31.89,East,101,7.0,13.0,52,0.00,,SKC,0.00,VWS V14.01,2013-08-12 00:54:00,
2013-08-11 20:00:00,88.1,68.3,31.89,ESE,115,1.0,13.0,52,0.00,,SKC,0.00,VWS V14.01,2013-08-12 01:00:00,
2013-08-11 20:06:00,88.1,68.8,31.89,ESE,117,4.0,7.0,53,0.00,,SKC,0.00,VWS V14.01,2013-08-12 01:06:00,
2013-08-11 20:12:00,88.2,68.9,31.89,SE,126,2.0,8.0,53,0.00,,SKC,0.00,VWS V14.01,2013-08-12 01:12:00,
2013-08-11 20:18:00,88.2,68.9,31.89,ESE,114,4.0,8.0,53,0.00,,SKC,0.00,VWS V14.01,2013-08-12 01:18:00,
2013-08-11 20:24:00,88.3,69.0,31.89,SE,137,4.0,8.0,53,0.00,,SKC,0.00,VWS V14.01,2013-08-12 01:24:00,
2013-08-11 20:30:00,88.7,68.8,31.89,East,101,0.0,8.0,52,0.00,,SKC,0.00,VWS V14.01,2013-08-12 01:30:00,
2013-08-11 20:43:00,88.9,69.0,31.89,SSE,157,0.0,5.0,52,0.00,,SKC,0.00,VWS V14.01,2013-08-12 01:43:00,
2013-08-11 20:49:00,89.0,69.7,31.89,SW,215,2.0,6.0,53,0.00,,SKC,0.00,VWS V14.01,2013-08-12 01:49:00,
2013-08-11 20:55:00,89.1,69.8,31.89,South,173,4.0,6.0,53,0.00,,SKC,0.00,VWS V14.01,2013-08-12 01:55:00,
2013-08-11 21:00:00,88.1,68.3,31.89,SSE,149,2.0,13.0,52,0.00,,SKC,0.00,VWS V14.01,2013-08-12 02:00:00,
2013-08-11 21:02:00,88.7,71.5,31.89,SW,215,3.0,8.0,57,0.00,,SKC,0.00,VWS V14.01,2013-08-12 02:02:00,
2013-08-11 21:10:00,87.9,71.8,31.89,SW,236,2.0,5.0,59,0.00,,SKC,0.00,VWS V14.01,2013-08-12 02:10:00,
2013-08-11 21:16:00,87.6,72.0,31.89,SW,215,4.0,7.0,60,0.00,,SKC,0.00,VWS V14.01,2013-08-12 02:16:00,
2013-08-11 21:22:00,87.2,71.6,31.89,SSW,203,7.0,7.0,60,0.00,,SKC,0.00,VWS V14.01,2013-08-12 02:22:00,
2013-08-11 21:28:00,86.9,71.3,31.89,SSE,168,3.0,7.0,60,0.00,,SKC,0.00,VWS V14.01,2013-08-12 02:28:00,
2013-08-11 21:30:00,88.7,68.8,31.89,ESE,113,4.0,8.0,52,0.00,,SKC,0.00,VWS V14.01,2013-08-12 02:30:00,
2013-08-11 21:34:00,86.7,71.7,31.89,South,189,1.0,1.0,61,0.00,,SKC,0.00,VWS V14.01,2013-08-12 02:34:00,
2013-08-11 21:40:00,86.7,71.2,31.89,SSW,212,0.0,5.0,60,0.00,,SKC,0.00,VWS V14.01,2013-08-12 02:40:00,
2013-08-11 21:46:00,86.7,71.2,31.89,SSW,212,0.0,5.0,60,0.00,,SKC,0.00,VWS V14.01,2013-08-12 02:46:00,
2013-08-11 21:53:00,86.6,71.1,31.89,SSW,212,0.0,5.0,60,0.00,,SKC,0.00,VWS V14.01,2013-08-12 02:53:00,
2013-08-11 22:00:00,88.7,71.5,31.89,SW,215,3.0,8.0,57,0.00,,SKC,0.00,VWS V14.01,2013-08-12 03:00:00,
2013-08-11 22:02:00,86.2,71.2,31.89,SSW,212,0.0,5.0,61,0.00,,SKC,0.00,VWS V14.01,2013-08-12 03:02:00,
2013-08-11 22:08:00,85.8,71.3,31.89,SSW,209,0.0,3.0,62,0.00,,SKC,0.00,VWS V14.01,2013-08-12 03:08:00,
2013-08-11 22:14:00,85.4,70.9,31.89,SSW,209,0.0,3.0,62,0.00,,SKC,0.00,VWS V14.01,2013-08-12 03:14:00,
2013-08-11 22:20:00,85.0,71.0,31.89,SSW,209,0.0,3.0,63,0.00,,SKC,0.00,VWS V14.01,2013-08-12 03:20:00,
2013-08-11 22:26:00,84.8,71.3,31.89,SSW,209,0.0,3.0,64,0.00,,SKC,0.00,VWS V14.01,2013-08-12 03:26:00,
2013-08-11 22:30:00,86.8,71.8,31.89,South,189,1.0,7.0,61,0.00,,SKC,0.00,VWS V14.01,2013-08-12 03:30:00,
2013-08-11 22:32:00,84.7,71.2,31.89,SSW,209,0.0,3.0,64,0.00,,SKC,0.00,VWS V14.01,2013-08-12 03:32:00,
2013-08-11 22:38:00,84.3,71.3,31.89,ENE,78,2.0,2.0,65,0.00,,SKC,0.00,VWS V14.01,2013-08-12 03:38:00,
2013-08-11 22:47:00,84.0,71.0,31.89,East,80,1.0,6.0,65,0.00,,SKC,0.00,VWS V14.01,2013-08-12 03:47:00,
2013-08-11 22:53:00,83.9,70.9,31.89,East,80,0.0,6.0,65,0.00,,SKC,0.00,VWS V14.01,2013-08-12 03:53:00,
2013-08-11 23:00:00,86.2,71.2,31.89,SSW,212,0.0,5.0,61,0.00,,SKC,0.00,VWS V14.01,2013-08-12 04:00:00,
2013-08-11 23:02:00,83.9,71.3,31.89,East,80,1.0,6.0,66,0.00,,SKC,0.00,VWS V14.01,2013-08-12 04:02:00,
2013-08-11 23:03:00,83.9,71.3,31.89,East,80,0.0,2.0,66,0.00,,SKC,0.00,VWS V14.01,2013-08-12 04:03:00,
2013-08-11 23:06:00,83.7,70.7,31.89,East,80,1.0,2.0,65,0.00,,SKC,0.00,VWS V14.01,2013-08-12 04:06:00,
2013-08-11 23:09:00,83.7,71.1,31.89,East,80,0.0,2.0,66,0.00,,SKC,0.00,VWS V14.01,2013-08-12 04:09:00,
2013-08-11 23:12:00,83.6,71.1,31.89,East,80,0.0,2.0,66,0.00,,SKC,0.00,VWS V14.01,2013-08-12 04:12:00,
2013-08-11 23:18:00,83.6,71.1,31.89,East,80,0.0,2.0,66,0.00,,SKC,0.00,VWS V14.01,2013-08-12 04:18:00,
2013-08-11 23:24:00,83.5,71.4,31.89,East,80,0.0,2.0,67,0.00,,SKC,0.00,VWS V14.01,2013-08-12 04:24:00,
2013-08-11 23:30:00,83.2,71.1,31.89,East,80,1.0,2.0,67,0.00,,SKC,0.00,VWS V14.01,2013-08-12 04:30:00,
2013-08-11 23:36:00,83.4,71.3,31.89,South,178,4.0,6.0,67,0.00,,SKC,0.00,VWS V14.01,2013-08-12 04:36:00,
2013-08-11 23:42:00,83.9,71.8,31.89,SSE,159,2.0,6.0,67,0.00,,SKC,0.00,VWS V14.01,2013-08-12 04:42:00,
2013-08-11 23:48:00,84.2,71.6,31.89,SSE,163,1.0,6.0,66,0.00,,SKC,0.00,VWS V14.01,2013-08-12 04:48:00,
2013-08-11 23:54:00,84.3,71.7,31.89,SSW,211,1.0,6.0,66,0.00,,SKC,0.00,VWS V14.01,2013-08-12 04:54:00,